When you browse on this site, cookies collect data to enhance your experience and personalize the content and advertising you see.
Visit our Privacy Policy to learn more. By continuing to use the site, you agree to this use of cookies and data.
  • In Österreich
  • Länderverzeichnis
  • Für 7 Tage
  • Wassertemperatur
  • Wetterkarte
  • News
  • Widgets
  • user-avatar
    Anmelden

    Stündliche Wetter Warora

    Heute, 25 Mai, Montag

    Zeit Temperatur Niederschläge Wind Luftdruck Luftfeuchtigkeit
    00:00 +38°C° 0 mm 2 m/S 736 mmHg 15%
    01:00 +37°C° 0 mm 2 m/S 736 mmHg 15%
    02:00 +37°C° 0 mm 2 m/S 735 mmHg 16%
    03:00 +36°C° 0 mm 2 m/S 736 mmHg 17%
    04:00 +35°C° 0 mm 2 m/S 736 mmHg 19%
    05:00 +33°C° 0 mm 1 m/S 737 mmHg 19%
    06:00 +36°C° 0 mm 1 m/S 737 mmHg 17%
    07:00 +39°C° 0 mm 1 m/S 738 mmHg 15%
    08:00 +42°C° 0 mm 1 m/S 738 mmHg 14%
    09:00 +44°C° 0 mm 1 m/S 738 mmHg 12%
    10:00 +47°C° 0 mm 2 m/S 738 mmHg 10%
    11:00 +48°C° 0 mm 3 m/S 738 mmHg 9%
    12:00 +50°C° 0 mm 3 m/S 737 mmHg 9%
    13:00 +49°C° 0 mm 2 m/S 736 mmHg 8%
    14:00 +50°C° 0 mm 2 m/S 736 mmHg 8%
    15:00 +50°C° 0 mm 2 m/S 735 mmHg 8%
    16:00 +49°C° 0 mm 2 m/S 735 mmHg 8%
    17:00 +47°C° 0 mm 1 m/S 735 mmHg 9%
    18:00 +45°C° 0 mm 1 m/S 735 mmHg 10%
    19:00 +43°C° 0 mm 1 m/S 736 mmHg 11%
    20:00 +41°C° 0 mm 1 m/S 736 mmHg 13%
    21:00 +40°C° 0 mm 1 m/S 736 mmHg 13%
    22:00 +40°C° 0 mm 2 m/S 736 mmHg 14%
    23:00 +39°C° 0 mm 2 m/S 736 mmHg 15%

    Morgen, 26 Mai, Dienstag

    Zeit Temperatur Niederschläge Wind Luftdruck Luftfeuchtigkeit
    00:00 +38°C° 0 mm 2 m/S 736 mmHg 16%
    01:00 +38°C° 0 mm 2 m/S 736 mmHg 17%
    02:00 +37°C° 0 mm 3 m/S 735 mmHg 19%
    03:00 +37°C° 0 mm 3 m/S 736 mmHg 22%
    04:00 +37°C° 0 mm 4 m/S 736 mmHg 26%
    05:00 +36°C° 0 mm 4 m/S 736 mmHg 29%
    06:00 +40°C° 0 mm 4 m/S 737 mmHg 25%
    07:00 +42°C° 0 mm 4 m/S 737 mmHg 20%
    08:00 +44°C° 0 mm 4 m/S 738 mmHg 16%
    09:00 +46°C° 0 mm 3 m/S 738 mmHg 14%
    10:00 +47°C° 0 mm 3 m/S 737 mmHg 11%
    11:00 +50°C° 0 mm 3 m/S 737 mmHg 9%
    12:00 +51°C° 0 mm 3 m/S 736 mmHg 9%
    13:00 +51°C° 0 mm 3 m/S 735 mmHg 8%
    14:00 +52°C° 0 mm 3 m/S 735 mmHg 8%
    15:00 +51°C° 0 mm 3 m/S 734 mmHg 8%
    16:00 +51°C° 0 mm 3 m/S 734 mmHg 8%
    17:00 +51°C° 0 mm 3 m/S 733 mmHg 8%
    18:00 +48°C° 0 mm 3 m/S 734 mmHg 10%
    19:00 +46°C° 0 mm 3 m/S 734 mmHg 11%
    20:00 +42°C° 0 mm 2 m/S 735 mmHg 13%
    21:00 +43°C° 0 mm 3 m/S 735 mmHg 14%
    22:00 +42°C° 0 mm 3 m/S 735 mmHg 15%
    23:00 +41°C° 0 mm 4 m/S 735 mmHg 16%

    übermorgen, 27 Mai, Mittwoch

    Zeit Temperatur Niederschläge Wind Luftdruck Luftfeuchtigkeit
    00:00 +41°C° 0 mm 4 m/S 735 mmHg 17%
    01:00 +40°C° 0 mm 4 m/S 735 mmHg 18%
    02:00 +38°C° 0 mm 4 m/S 735 mmHg 20%
    03:00 +37°C° 0 mm 3 m/S 735 mmHg 20%
    04:00 +36°C° 0 mm 3 m/S 735 mmHg 20%
    05:00 +35°C° 0 mm 2 m/S 735 mmHg 19%
    06:00 +37°C° 0 mm 3 m/S 736 mmHg 17%
    07:00 +40°C° 0 mm 3 m/S 737 mmHg 15%
    08:00 +43°C° 0 mm 4 m/S 737 mmHg 12%
    09:00 +45°C° 0 mm 4 m/S 737 mmHg 11%
    10:00 +47°C° 0 mm 4 m/S 736 mmHg 10%
    11:00 +48°C° 0 mm 3 m/S 736 mmHg 9%
    12:00 +50°C° 0 mm 4 m/S 735 mmHg 9%
    13:00 +51°C° 0 mm 4 m/S 735 mmHg 9%
    14:00 +53°C° 0 mm 5 m/S 734 mmHg 9%
    15:00 +53°C° 0 mm 5 m/S 733 mmHg 9%
    16:00 +52°C° 0 mm 6 m/S 733 mmHg 9%
    17:00 +51°C° 0 mm 6 m/S 732 mmHg 10%
    18:00 +48°C° 0 mm 5 m/S 733 mmHg 11%
    19:00 +47°C° 0 mm 5 m/S 733 mmHg 12%
    20:00 +45°C° 0 mm 5 m/S 734 mmHg 13%
    21:00 +43°C° 0 mm 5 m/S 734 mmHg 14%
    22:00 +42°C° 0 mm 4 m/S 734 mmHg 15%
    23:00 +41°C° 0 mm 4 m/S 734 mmHg 17%

    28 Mai, Donnerstag

    Zeit Temperatur Niederschläge Wind Luftdruck Luftfeuchtigkeit
    00:00 +40°C° 0 mm 5 m/S 734 mmHg 17%
    01:00 +39°C° 0 mm 5 m/S 734 mmHg 17%
    02:00 +39°C° 0 mm 6 m/S 734 mmHg 18%
    03:00 +37°C° 0 mm 5 m/S 734 mmHg 22%
    04:00 +36°C° 0 mm 5 m/S 734 mmHg 27%
    05:00 +35°C° 0 mm 4 m/S 735 mmHg 31%
    06:00 +36°C° 0 mm 4 m/S 735 mmHg 30%
    07:00 +38°C° 0 mm 4 m/S 736 mmHg 29%
    08:00 +40°C° 0 mm 4 m/S 737 mmHg 28%
    09:00 +43°C° 0 mm 4 m/S 736 mmHg 24%
    10:00 +45°C° 0 mm 4 m/S 736 mmHg 20%
    11:00 +48°C° 0 mm 4 m/S 736 mmHg 16%
    12:00 +49°C° 0 mm 5 m/S 735 mmHg 14%
    13:00 +50°C° 0 mm 5 m/S 734 mmHg 12%
    14:00 +52°C° 0 mm 6 m/S 733 mmHg 11%
    15:00 +52°C° 0 mm 6 m/S 733 mmHg 11%
    16:00 +51°C° 0 mm 6 m/S 732 mmHg 11%
    17:00 +49°C° 0 mm 6 m/S 732 mmHg 12%
    18:00 +47°C° 0 mm 6 m/S 733 mmHg 13%
    19:00 +45°C° 0 mm 5 m/S 733 mmHg 15%
    20:00 +42°C° 0 mm 4 m/S 734 mmHg 16%
    21:00 +41°C° 0 mm 4 m/S 734 mmHg 17%
    22:00 +40°C° 0 mm 4 m/S 734 mmHg 17%
    23:00 +40°C° 0 mm 4 m/S 734 mmHg 18%

    29 Mai, Freitag

    Zeit Temperatur Niederschläge Wind Luftdruck Luftfeuchtigkeit
    00:00 +38°C° 0 mm 4 m/S 734 mmHg 20%
    01:00 +37°C° 0 mm 4 m/S 734 mmHg 22%
    02:00 +36°C° 0 mm 4 m/S 734 mmHg 24%
    03:00 +36°C° 0 mm 5 m/S 734 mmHg 28%
    04:00 +35°C° 0 mm 5 m/S 734 mmHg 32%
    05:00 +34°C° 0 mm 6 m/S 735 mmHg 36%
    06:00 +36°C° 0 mm 5 m/S 735 mmHg 35%
    07:00 +39°C° 0 mm 5 m/S 736 mmHg 33%
    08:00 +40°C° 0 mm 4 m/S 737 mmHg 31%
    09:00 +42°C° 0 mm 4 m/S 737 mmHg 27%
    10:00 +44°C° 0 mm 4 m/S 736 mmHg 22%
    11:00 +47°C° 0 mm 4 m/S 736 mmHg 18%
    12:00 +49°C° 0 mm 4 m/S 735 mmHg 16%
    13:00 +50°C° 0 mm 5 m/S 735 mmHg 14%
    14:00 +52°C° 0 mm 5 m/S 734 mmHg 11%
    15:00 +50°C° 0 mm 5 m/S 734 mmHg 11%
    16:00 +50°C° 0 mm 5 m/S 733 mmHg 12%
    17:00 +49°C° 0 mm 6 m/S 733 mmHg 12%
    18:00 +47°C° 0 mm 5 m/S 733 mmHg 13%
    19:00 +44°C° 0 mm 4 m/S 734 mmHg 14%
    20:00 +42°C° 0 mm 4 m/S 734 mmHg 16%
    21:00 +41°C° 0 mm 4 m/S 734 mmHg 16%
    22:00 +40°C° 0 mm 4 m/S 735 mmHg 17%
    23:00 +38°C° 0 mm 3 m/S 735 mmHg 18%

    30 Mai, Samstag

    Zeit Temperatur Niederschläge Wind Luftdruck Luftfeuchtigkeit
    00:00 +38°C° 0 mm 4 m/S 735 mmHg 21%
    01:00 +37°C° 0 mm 5 m/S 735 mmHg 23%
    02:00 +38°C° 0 mm 6 m/S 735 mmHg 25%
    03:00 +36°C° 0 mm 5 m/S 735 mmHg 28%
    04:00 +35°C° 0 mm 4 m/S 736 mmHg 31%
    05:00 +34°C° 0 mm 2 m/S 736 mmHg 33%
    06:00 +36°C° 0 mm 3 m/S 737 mmHg 32%
    07:00 +37°C° 0 mm 4 m/S 737 mmHg 30%
    08:00 +40°C° 0 mm 4 m/S 738 mmHg 28%
    09:00 +42°C° 0 mm 4 m/S 738 mmHg 24%
    10:00 +44°C° 0 mm 4 m/S 738 mmHg 21%
    11:00 +48°C° 0 mm 4 m/S 738 mmHg 17%
    12:00 +48°C° 0 mm 4 m/S 737 mmHg 15%
    13:00 +49°C° 0 mm 4 m/S 736 mmHg 14%
    14:00 +50°C° 0 mm 4 m/S 735 mmHg 12%
    15:00 +49°C° 0 mm 4 m/S 735 mmHg 13%
    16:00 +48°C° 0 mm 3 m/S 735 mmHg 13%
    17:00 +47°C° 0 mm 3 m/S 734 mmHg 14%
    18:00 +45°C° 0 mm 3 m/S 735 mmHg 16%
    19:00 +44°C° 0 mm 3 m/S 735 mmHg 17%
    20:00 +42°C° 0 mm 3 m/S 736 mmHg 19%
    21:00 +40°C° 0 mm 3 m/S 736 mmHg 21%
    22:00 +39°C° 0 mm 3 m/S 737 mmHg 22%
    23:00 +39°C° 0 mm 3 m/S 737 mmHg 23%
    Mehr zeigen